<?xml version="1.0" encoding="UTF-8" standalone="no" ?>
<gpx xmlns="http://www.topografix.com/GPX/1/1" xmlns:xsi="http://www.w3.org/2001/XMLSchema-instance" xsi:schemaLocation="http://www.topografix.com/GPX/1/1 http://www.topografix.com/GPX/1/1/gpx.xsd" version="1.1" creator="VisuGPX - https://www.visugpx.com">
  <metadata>
    <name>Rando à BRELIDY</name>
    <desc><![CDATA[Boucle à BRELIDY au départ de la Salle des Fêtes]]></desc>
  </metadata>
  <trk>
    <name><![CDATA[Pierre-Yvon]]></name>
    <trkseg>
      <trkpt lat="48.66038" lon="-3.22096">
        <ele>79</ele>
        <time>2012-02-02T12:47:56Z</time>
      </trkpt>
      <trkpt lat="48.66532" lon="-3.20979">
        <ele>82.2</ele>
        <time>2012-02-02T12:47:56Z</time>
      </trkpt>
      <trkpt lat="48.66553" lon="-3.20992">
        <ele>82.7</ele>
        <time>2012-02-02T12:47:56Z</time>
      </trkpt>
      <trkpt lat="48.66573" lon="-3.20998">
        <ele>82.8</ele>
        <time>2012-02-02T12:47:56Z</time>
      </trkpt>
      <trkpt lat="48.66591" lon="-3.20979">
        <ele>86.1</ele>
        <time>2012-02-02T12:47:56Z</time>
      </trkpt>
      <trkpt lat="48.66603" lon="-3.20949">
        <ele>88.6</ele>
        <time>2012-02-02T12:47:56Z</time>
      </trkpt>
      <trkpt lat="48.66613" lon="-3.20918">
        <ele>89.1</ele>
        <time>2012-02-02T12:47:56Z</time>
      </trkpt>
      <trkpt lat="48.66631" lon="-3.2091">
        <ele>90.9</ele>
        <time>2012-02-02T12:47:56Z</time>
      </trkpt>
      <trkpt lat="48.66647" lon="-3.20933">
        <ele>91.6</ele>
        <time>2012-02-02T12:47:56Z</time>
      </trkpt>
      <trkpt lat="48.66663" lon="-3.20959">
        <ele>92.7</ele>
        <time>2012-02-02T12:47:56Z</time>
      </trkpt>
      <trkpt lat="48.66676" lon="-3.20995">
        <ele>93.1</ele>
        <time>2012-02-02T12:47:56Z</time>
      </trkpt>
      <trkpt lat="48.6669" lon="-3.21022">
        <ele>93.2</ele>
        <time>2012-02-02T12:47:56Z</time>
      </trkpt>
      <trkpt lat="48.66708" lon="-3.21044">
        <ele>92.9</ele>
        <time>2012-02-02T12:47:56Z</time>
      </trkpt>
      <trkpt lat="48.66724" lon="-3.21069">
        <ele>92.6</ele>
        <time>2012-02-02T12:47:56Z</time>
      </trkpt>
      <trkpt lat="48.6674" lon="-3.21095">
        <ele>91.8</ele>
        <time>2012-02-02T12:47:56Z</time>
      </trkpt>
      <trkpt lat="48.66759" lon="-3.21117">
        <ele>91.2</ele>
        <time>2012-02-02T12:47:56Z</time>
      </trkpt>
      <trkpt lat="48.6678" lon="-3.21124">
        <ele>92.2</ele>
        <time>2012-02-02T12:47:56Z</time>
      </trkpt>
      <trkpt lat="48.66805" lon="-3.21127">
        <ele>92.8</ele>
        <time>2012-02-02T12:47:56Z</time>
      </trkpt>
      <trkpt lat="48.66826" lon="-3.21121">
        <ele>93.3</ele>
        <time>2012-02-02T12:47:56Z</time>
      </trkpt>
      <trkpt lat="48.66851" lon="-3.21128">
        <ele>93.2</ele>
        <time>2012-02-02T12:47:56Z</time>
      </trkpt>
      <trkpt lat="48.66873" lon="-3.21145">
        <ele>93.1</ele>
        <time>2012-02-02T12:47:56Z</time>
      </trkpt>
      <trkpt lat="48.66896" lon="-3.21159">
        <ele>92.8</ele>
        <time>2012-02-02T12:47:56Z</time>
      </trkpt>
      <trkpt lat="48.66918" lon="-3.21164">
        <ele>93.2</ele>
        <time>2012-02-02T12:47:56Z</time>
      </trkpt>
      <trkpt lat="48.66943" lon="-3.21158">
        <ele>93.3</ele>
        <time>2012-02-02T12:47:56Z</time>
      </trkpt>
      <trkpt lat="48.66966" lon="-3.21158">
        <ele>93.1</ele>
        <time>2012-02-02T12:47:56Z</time>
      </trkpt>
      <trkpt lat="48.66975" lon="-3.21193">
        <ele>92.1</ele>
        <time>2012-02-02T12:47:56Z</time>
      </trkpt>
      <trkpt lat="48.66986" lon="-3.21226">
        <ele>91.3</ele>
        <time>2012-02-02T12:47:56Z</time>
      </trkpt>
      <trkpt lat="48.67005" lon="-3.21247">
        <ele>90.4</ele>
        <time>2012-02-02T12:47:56Z</time>
      </trkpt>
      <trkpt lat="48.67028" lon="-3.21267">
        <ele>89.8</ele>
        <time>2012-02-02T12:47:56Z</time>
      </trkpt>
      <trkpt lat="48.67045" lon="-3.21292">
        <ele>89.1</ele>
        <time>2012-02-02T12:47:56Z</time>
      </trkpt>
      <trkpt lat="48.67062" lon="-3.21318">
        <ele>88.8</ele>
        <time>2012-02-02T12:47:56Z</time>
      </trkpt>
      <trkpt lat="48.67078" lon="-3.21344">
        <ele>88.4</ele>
        <time>2012-02-02T12:47:56Z</time>
      </trkpt>
      <trkpt lat="48.67096" lon="-3.2137">
        <ele>88</ele>
        <time>2012-02-02T12:47:56Z</time>
      </trkpt>
      <trkpt lat="48.67116" lon="-3.21393">
        <ele>87.9</ele>
        <time>2012-02-02T12:47:56Z</time>
      </trkpt>
      <trkpt lat="48.67136" lon="-3.21417">
        <ele>87</ele>
        <time>2012-02-02T12:47:56Z</time>
      </trkpt>
      <trkpt lat="48.67142" lon="-3.21449">
        <ele>86.8</ele>
        <time>2012-02-02T12:47:56Z</time>
      </trkpt>
      <trkpt lat="48.67142" lon="-3.21486">
        <ele>85.6</ele>
        <time>2012-02-02T12:47:56Z</time>
      </trkpt>
      <trkpt lat="48.6714" lon="-3.21524">
        <ele>85.1</ele>
        <time>2012-02-02T12:47:56Z</time>
      </trkpt>
      <trkpt lat="48.67138" lon="-3.21559">
        <ele>84</ele>
        <time>2012-02-02T12:47:56Z</time>
      </trkpt>
      <trkpt lat="48.67134" lon="-3.21599">
        <ele>83.7</ele>
        <time>2012-02-02T12:47:56Z</time>
      </trkpt>
      <trkpt lat="48.67126" lon="-3.21636">
        <ele>83.1</ele>
        <time>2012-02-02T12:47:56Z</time>
      </trkpt>
      <trkpt lat="48.67118" lon="-3.2167">
        <ele>82.5</ele>
        <time>2012-02-02T12:47:56Z</time>
      </trkpt>
      <trkpt lat="48.67107" lon="-3.21702">
        <ele>82.2</ele>
        <time>2012-02-02T12:47:56Z</time>
      </trkpt>
      <trkpt lat="48.67095" lon="-3.21738">
        <ele>82.4</ele>
        <time>2012-02-02T12:47:56Z</time>
      </trkpt>
      <trkpt lat="48.67082" lon="-3.21771">
        <ele>81.2</ele>
        <time>2012-02-02T12:47:56Z</time>
      </trkpt>
      <trkpt lat="48.67068" lon="-3.21805">
        <ele>80.5</ele>
        <time>2012-02-02T12:47:56Z</time>
      </trkpt>
      <trkpt lat="48.67056" lon="-3.21837">
        <ele>78.9</ele>
        <time>2012-02-02T12:47:56Z</time>
      </trkpt>
      <trkpt lat="48.67043" lon="-3.2187">
        <ele>77.7</ele>
        <time>2012-02-02T12:47:56Z</time>
      </trkpt>
      <trkpt lat="48.67038" lon="-3.21908">
        <ele>76.7</ele>
        <time>2012-02-02T12:47:56Z</time>
      </trkpt>
      <trkpt lat="48.67035" lon="-3.21948">
        <ele>75.6</ele>
        <time>2012-02-02T12:47:56Z</time>
      </trkpt>
      <trkpt lat="48.6703" lon="-3.21987">
        <ele>73.9</ele>
        <time>2012-02-02T12:47:56Z</time>
      </trkpt>
      <trkpt lat="48.67026" lon="-3.22024">
        <ele>71.4</ele>
        <time>2012-02-02T12:47:56Z</time>
      </trkpt>
      <trkpt lat="48.67021" lon="-3.2206">
        <ele>69.2</ele>
        <time>2012-02-02T12:47:56Z</time>
      </trkpt>
      <trkpt lat="48.67018" lon="-3.22096">
        <ele>66.8</ele>
        <time>2012-02-02T12:47:56Z</time>
      </trkpt>
      <trkpt lat="48.67013" lon="-3.22137">
        <ele>64.2</ele>
        <time>2012-02-02T12:47:56Z</time>
      </trkpt>
      <trkpt lat="48.67008" lon="-3.2217">
        <ele>61.5</ele>
        <time>2012-02-02T12:47:56Z</time>
      </trkpt>
      <trkpt lat="48.67" lon="-3.22206">
        <ele>59.6</ele>
        <time>2012-02-02T12:47:56Z</time>
      </trkpt>
      <trkpt lat="48.66995" lon="-3.22242">
        <ele>58.3</ele>
        <time>2012-02-02T12:47:56Z</time>
      </trkpt>
      <trkpt lat="48.6699" lon="-3.22275">
        <ele>57.4</ele>
        <time>2012-02-02T12:47:56Z</time>
      </trkpt>
      <trkpt lat="48.66986" lon="-3.22314">
        <ele>56.4</ele>
        <time>2012-02-02T12:47:56Z</time>
      </trkpt>
      <trkpt lat="48.66987" lon="-3.22345">
        <ele>54</ele>
        <time>2012-02-02T12:47:56Z</time>
      </trkpt>
      <trkpt lat="48.66994" lon="-3.22377">
        <ele>52.1</ele>
        <time>2012-02-02T12:47:56Z</time>
      </trkpt>
      <trkpt lat="48.66996" lon="-3.22408">
        <ele>49.8</ele>
        <time>2012-02-02T12:47:56Z</time>
      </trkpt>
      <trkpt lat="48.66998" lon="-3.2244">
        <ele>47.8</ele>
        <time>2012-02-02T12:47:56Z</time>
      </trkpt>
      <trkpt lat="48.66996" lon="-3.22477">
        <ele>46</ele>
        <time>2012-02-02T12:47:56Z</time>
      </trkpt>
      <trkpt lat="48.66997" lon="-3.22515">
        <ele>45.3</ele>
        <time>2012-02-02T12:47:56Z</time>
      </trkpt>
      <trkpt lat="48.67005" lon="-3.22549">
        <ele>42.4</ele>
        <time>2012-02-02T12:47:56Z</time>
      </trkpt>
      <trkpt lat="48.66995" lon="-3.22571">
        <ele>40.9</ele>
        <time>2012-02-02T12:47:56Z</time>
      </trkpt>
      <trkpt lat="48.66973" lon="-3.2257">
        <ele>40.5</ele>
        <time>2012-02-02T12:47:56Z</time>
      </trkpt>
      <trkpt lat="48.66954" lon="-3.2256">
        <ele>40</ele>
        <time>2012-02-02T12:47:56Z</time>
      </trkpt>
      <trkpt lat="48.66933" lon="-3.22548">
        <ele>40.3</ele>
        <time>2012-02-02T12:47:56Z</time>
      </trkpt>
      <trkpt lat="48.66911" lon="-3.22534">
        <ele>40.6</ele>
        <time>2012-02-02T12:47:56Z</time>
      </trkpt>
      <trkpt lat="48.66902" lon="-3.22554">
        <ele>41.5</ele>
        <time>2012-02-02T12:47:56Z</time>
      </trkpt>
      <trkpt lat="48.66885" lon="-3.22576">
        <ele>43</ele>
        <time>2012-02-02T12:47:56Z</time>
      </trkpt>
      <trkpt lat="48.66874" lon="-3.22597">
        <ele>44.1</ele>
        <time>2012-02-02T12:47:56Z</time>
      </trkpt>
      <trkpt lat="48.66861" lon="-3.22613">
        <ele>45</ele>
        <time>2012-02-02T12:47:56Z</time>
      </trkpt>
      <trkpt lat="48.66839" lon="-3.22624">
        <ele>48.2</ele>
        <time>2012-02-02T12:47:56Z</time>
      </trkpt>
      <trkpt lat="48.66808" lon="-3.22637">
        <ele>50.9</ele>
        <time>2012-02-02T12:47:56Z</time>
      </trkpt>
      <trkpt lat="48.66788" lon="-3.22635">
        <ele>52.9</ele>
        <time>2012-02-02T12:47:56Z</time>
      </trkpt>
      <trkpt lat="48.6677" lon="-3.22634">
        <ele>54.5</ele>
        <time>2012-02-02T12:47:56Z</time>
      </trkpt>
      <trkpt lat="48.66751" lon="-3.2263">
        <ele>55.9</ele>
        <time>2012-02-02T12:47:56Z</time>
      </trkpt>
      <trkpt lat="48.66724" lon="-3.22637">
        <ele>56.9</ele>
        <time>2012-02-02T12:47:56Z</time>
      </trkpt>
      <trkpt lat="48.667" lon="-3.22636">
        <ele>57</ele>
        <time>2012-02-02T12:47:56Z</time>
      </trkpt>
      <trkpt lat="48.66677" lon="-3.2264">
        <ele>57.1</ele>
        <time>2012-02-02T12:47:56Z</time>
      </trkpt>
      <trkpt lat="48.66654" lon="-3.22646">
        <ele>57.9</ele>
        <time>2012-02-02T12:47:56Z</time>
      </trkpt>
      <trkpt lat="48.66637" lon="-3.22659">
        <ele>58.7</ele>
        <time>2012-02-02T12:47:56Z</time>
      </trkpt>
      <trkpt lat="48.66615" lon="-3.22674">
        <ele>59.3</ele>
        <time>2012-02-02T12:47:56Z</time>
      </trkpt>
      <trkpt lat="48.66595" lon="-3.22692">
        <ele>60</ele>
        <time>2012-02-02T12:47:56Z</time>
      </trkpt>
      <trkpt lat="48.66577" lon="-3.2271">
        <ele>61.1</ele>
        <time>2012-02-02T12:47:56Z</time>
      </trkpt>
      <trkpt lat="48.66559" lon="-3.22733">
        <ele>61.5</ele>
        <time>2012-02-02T12:47:56Z</time>
      </trkpt>
      <trkpt lat="48.66543" lon="-3.22764">
        <ele>63.5</ele>
        <time>2012-02-02T12:47:56Z</time>
      </trkpt>
      <trkpt lat="48.66528" lon="-3.22795">
        <ele>64</ele>
        <time>2012-02-02T12:47:56Z</time>
      </trkpt>
      <trkpt lat="48.66515" lon="-3.22825">
        <ele>64.8</ele>
        <time>2012-02-02T12:47:56Z</time>
      </trkpt>
      <trkpt lat="48.66505" lon="-3.22835">
        <ele>65.1</ele>
        <time>2012-02-02T12:47:56Z</time>
      </trkpt>
      <trkpt lat="48.66489" lon="-3.22855">
        <ele>66</ele>
        <time>2012-02-02T12:47:56Z</time>
      </trkpt>
      <trkpt lat="48.6647" lon="-3.22871">
        <ele>66.5</ele>
        <time>2012-02-02T12:47:56Z</time>
      </trkpt>
      <trkpt lat="48.66453" lon="-3.22887">
        <ele>67.7</ele>
        <time>2012-02-02T12:47:56Z</time>
      </trkpt>
      <trkpt lat="48.6643" lon="-3.22905">
        <ele>68.7</ele>
        <time>2012-02-02T12:47:56Z</time>
      </trkpt>
      <trkpt lat="48.66408" lon="-3.22915">
        <ele>69.7</ele>
        <time>2012-02-02T12:47:56Z</time>
      </trkpt>
      <trkpt lat="48.66385" lon="-3.22921">
        <ele>71.4</ele>
        <time>2012-02-02T12:47:56Z</time>
      </trkpt>
      <trkpt lat="48.66362" lon="-3.22927">
        <ele>72.6</ele>
        <time>2012-02-02T12:47:56Z</time>
      </trkpt>
      <trkpt lat="48.66341" lon="-3.22933">
        <ele>73.1</ele>
        <time>2012-02-02T12:47:56Z</time>
      </trkpt>
      <trkpt lat="48.66317" lon="-3.22942">
        <ele>73</ele>
        <time>2012-02-02T12:47:56Z</time>
      </trkpt>
      <trkpt lat="48.66295" lon="-3.22936">
        <ele>73.3</ele>
        <time>2012-02-02T12:47:56Z</time>
      </trkpt>
      <trkpt lat="48.66276" lon="-3.22908">
        <ele>73</ele>
        <time>2012-02-02T12:47:56Z</time>
      </trkpt>
      <trkpt lat="48.66264" lon="-3.22881">
        <ele>72.7</ele>
        <time>2012-02-02T12:47:56Z</time>
      </trkpt>
      <trkpt lat="48.66251" lon="-3.2285">
        <ele>71.6</ele>
        <time>2012-02-02T12:47:56Z</time>
      </trkpt>
      <trkpt lat="48.66238" lon="-3.22822">
        <ele>72.1</ele>
        <time>2012-02-02T12:47:56Z</time>
      </trkpt>
      <trkpt lat="48.66225" lon="-3.22808">
        <ele>72.9</ele>
        <time>2012-02-02T12:47:56Z</time>
      </trkpt>
      <trkpt lat="48.66196" lon="-3.22811">
        <ele>73.9</ele>
        <time>2012-02-02T12:47:56Z</time>
      </trkpt>
      <trkpt lat="48.66172" lon="-3.22805">
        <ele>74.8</ele>
        <time>2012-02-02T12:47:56Z</time>
      </trkpt>
      <trkpt lat="48.66149" lon="-3.22812">
        <ele>76.3</ele>
        <time>2012-02-02T12:47:56Z</time>
      </trkpt>
      <trkpt lat="48.66126" lon="-3.2282">
        <ele>77.5</ele>
        <time>2012-02-02T12:47:56Z</time>
      </trkpt>
      <trkpt lat="48.66084" lon="-3.22828">
        <ele>80</ele>
        <time>2012-02-02T12:47:56Z</time>
      </trkpt>
      <trkpt lat="48.66065" lon="-3.22839">
        <ele>80.6</ele>
        <time>2012-02-02T12:47:56Z</time>
      </trkpt>
      <trkpt lat="48.66056" lon="-3.22854">
        <ele>81</ele>
        <time>2012-02-02T12:47:56Z</time>
      </trkpt>
      <trkpt lat="48.66039" lon="-3.22857">
        <ele>81.6</ele>
        <time>2012-02-02T12:47:56Z</time>
      </trkpt>
      <trkpt lat="48.66017" lon="-3.22847">
        <ele>82.8</ele>
        <time>2012-02-02T12:47:56Z</time>
      </trkpt>
      <trkpt lat="48.65993" lon="-3.22842">
        <ele>84.4</ele>
        <time>2012-02-02T12:47:56Z</time>
      </trkpt>
      <trkpt lat="48.65972" lon="-3.22841">
        <ele>85.7</ele>
        <time>2012-02-02T12:47:56Z</time>
      </trkpt>
      <trkpt lat="48.65951" lon="-3.22832">
        <ele>86.8</ele>
        <time>2012-02-02T12:47:56Z</time>
      </trkpt>
      <trkpt lat="48.65929" lon="-3.22833">
        <ele>88.1</ele>
        <time>2012-02-02T12:47:56Z</time>
      </trkpt>
      <trkpt lat="48.65907" lon="-3.2282">
        <ele>89.9</ele>
        <time>2012-02-02T12:47:56Z</time>
      </trkpt>
      <trkpt lat="48.65884" lon="-3.22815">
        <ele>91.5</ele>
        <time>2012-02-02T12:47:56Z</time>
      </trkpt>
      <trkpt lat="48.6587" lon="-3.22835">
        <ele>90.3</ele>
        <time>2012-02-02T12:47:56Z</time>
      </trkpt>
      <trkpt lat="48.6589" lon="-3.22859">
        <ele>90.9</ele>
        <time>2012-02-02T12:47:56Z</time>
      </trkpt>
      <trkpt lat="48.65901" lon="-3.22883">
        <ele>89.7</ele>
        <time>2012-02-02T12:47:56Z</time>
      </trkpt>
      <trkpt lat="48.65907" lon="-3.22901">
        <ele>88.5</ele>
        <time>2012-02-02T12:47:56Z</time>
      </trkpt>
      <trkpt lat="48.65923" lon="-3.22924">
        <ele>86.5</ele>
        <time>2012-02-02T12:47:56Z</time>
      </trkpt>
      <trkpt lat="48.65936" lon="-3.22952">
        <ele>84.4</ele>
        <time>2012-02-02T12:47:56Z</time>
      </trkpt>
      <trkpt lat="48.65954" lon="-3.2297">
        <ele>83.7</ele>
        <time>2012-02-02T12:47:56Z</time>
      </trkpt>
      <trkpt lat="48.65974" lon="-3.22986">
        <ele>82.9</ele>
        <time>2012-02-02T12:47:56Z</time>
      </trkpt>
      <trkpt lat="48.65992" lon="-3.23009">
        <ele>81.5</ele>
        <time>2012-02-02T12:47:56Z</time>
      </trkpt>
      <trkpt lat="48.66007" lon="-3.23034">
        <ele>80.8</ele>
        <time>2012-02-02T12:47:56Z</time>
      </trkpt>
      <trkpt lat="48.66017" lon="-3.23066">
        <ele>80.4</ele>
        <time>2012-02-02T12:47:56Z</time>
      </trkpt>
      <trkpt lat="48.66025" lon="-3.23101">
        <ele>79.5</ele>
        <time>2012-02-02T12:47:56Z</time>
      </trkpt>
      <trkpt lat="48.66034" lon="-3.23135">
        <ele>77.2</ele>
        <time>2012-02-02T12:47:56Z</time>
      </trkpt>
      <trkpt lat="48.66049" lon="-3.23165">
        <ele>74.4</ele>
        <time>2012-02-02T12:47:56Z</time>
      </trkpt>
      <trkpt lat="48.66064" lon="-3.23192">
        <ele>72.5</ele>
        <time>2012-02-02T12:47:56Z</time>
      </trkpt>
      <trkpt lat="48.66075" lon="-3.23222">
        <ele>68.9</ele>
        <time>2012-02-02T12:47:56Z</time>
      </trkpt>
      <trkpt lat="48.66097" lon="-3.23222">
        <ele>66.6</ele>
        <time>2012-02-02T12:47:56Z</time>
      </trkpt>
      <trkpt lat="48.66114" lon="-3.23207">
        <ele>67.4</ele>
        <time>2012-02-02T12:47:56Z</time>
      </trkpt>
      <trkpt lat="48.66132" lon="-3.23191">
        <ele>68.9</ele>
        <time>2012-02-02T12:47:56Z</time>
      </trkpt>
      <trkpt lat="48.66153" lon="-3.23175">
        <ele>70.4</ele>
        <time>2012-02-02T12:47:56Z</time>
      </trkpt>
      <trkpt lat="48.66168" lon="-3.23192">
        <ele>68.3</ele>
        <time>2012-02-02T12:47:56Z</time>
      </trkpt>
      <trkpt lat="48.6618" lon="-3.23219">
        <ele>64.5</ele>
        <time>2012-02-02T12:47:56Z</time>
      </trkpt>
      <trkpt lat="48.66201" lon="-3.23226">
        <ele>64.6</ele>
        <time>2012-02-02T12:47:56Z</time>
      </trkpt>
      <trkpt lat="48.6622" lon="-3.23234">
        <ele>63.8</ele>
        <time>2012-02-02T12:47:56Z</time>
      </trkpt>
      <trkpt lat="48.66229" lon="-3.2326">
        <ele>60</ele>
        <time>2012-02-02T12:47:56Z</time>
      </trkpt>
      <trkpt lat="48.66239" lon="-3.2329">
        <ele>56.4</ele>
        <time>2012-02-02T12:47:56Z</time>
      </trkpt>
      <trkpt lat="48.66244" lon="-3.23317">
        <ele>52.8</ele>
        <time>2012-02-02T12:47:56Z</time>
      </trkpt>
      <trkpt lat="48.6626" lon="-3.23336">
        <ele>51.7</ele>
        <time>2012-02-02T12:47:56Z</time>
      </trkpt>
      <trkpt lat="48.66279" lon="-3.23344">
        <ele>52.1</ele>
        <time>2012-02-02T12:47:56Z</time>
      </trkpt>
      <trkpt lat="48.66276" lon="-3.23359">
        <ele>49.3</ele>
        <time>2012-02-02T12:47:56Z</time>
      </trkpt>
      <trkpt lat="48.66259" lon="-3.23377">
        <ele>45</ele>
        <time>2012-02-02T12:47:56Z</time>
      </trkpt>
      <trkpt lat="48.6623" lon="-3.23351">
        <ele>47.9</ele>
        <time>2012-02-02T12:47:56Z</time>
      </trkpt>
      <trkpt lat="48.66213" lon="-3.23348">
        <ele>49.3</ele>
        <time>2012-02-02T12:47:56Z</time>
      </trkpt>
      <trkpt lat="48.66215" lon="-3.23377">
        <ele>46.2</ele>
        <time>2012-02-02T12:47:56Z</time>
      </trkpt>
      <trkpt lat="48.6621" lon="-3.23404">
        <ele>42.4</ele>
        <time>2012-02-02T12:47:56Z</time>
      </trkpt>
      <trkpt lat="48.66194" lon="-3.23419">
        <ele>40</ele>
        <time>2012-02-02T12:47:56Z</time>
      </trkpt>
      <trkpt lat="48.66189" lon="-3.23429">
        <ele>40.1</ele>
        <time>2012-02-02T12:47:56Z</time>
      </trkpt>
      <trkpt lat="48.66181" lon="-3.23446">
        <ele>39.5</ele>
        <time>2012-02-02T12:47:56Z</time>
      </trkpt>
      <trkpt lat="48.66163" lon="-3.23451">
        <ele>39.9</ele>
        <time>2012-02-02T12:47:56Z</time>
      </trkpt>
      <trkpt lat="48.66147" lon="-3.23438">
        <ele>41.2</ele>
        <time>2012-02-02T12:47:56Z</time>
      </trkpt>
      <trkpt lat="48.66127" lon="-3.23432">
        <ele>45.9</ele>
        <time>2012-02-02T12:47:56Z</time>
      </trkpt>
      <trkpt lat="48.66113" lon="-3.23443">
        <ele>45.1</ele>
        <time>2012-02-02T12:47:56Z</time>
      </trkpt>
      <trkpt lat="48.66093" lon="-3.23451">
        <ele>47.8</ele>
        <time>2012-02-02T12:47:56Z</time>
      </trkpt>
      <trkpt lat="48.66078" lon="-3.23444">
        <ele>53</ele>
        <time>2012-02-02T12:47:56Z</time>
      </trkpt>
      <trkpt lat="48.66063" lon="-3.23458">
        <ele>52.1</ele>
        <time>2012-02-02T12:47:56Z</time>
      </trkpt>
      <trkpt lat="48.66066" lon="-3.23472">
        <ele>47.8</ele>
        <time>2012-02-02T12:47:56Z</time>
      </trkpt>
      <trkpt lat="48.6605" lon="-3.23483">
        <ele>49.2</ele>
        <time>2012-02-02T12:47:56Z</time>
      </trkpt>
      <trkpt lat="48.66042" lon="-3.23512">
        <ele>45.3</ele>
        <time>2012-02-02T12:47:56Z</time>
      </trkpt>
      <trkpt lat="48.66025" lon="-3.23531">
        <ele>46.5</ele>
        <time>2012-02-02T12:47:56Z</time>
      </trkpt>
      <trkpt lat="48.66009" lon="-3.23548">
        <ele>48.8</ele>
        <time>2012-02-02T12:47:56Z</time>
      </trkpt>
      <trkpt lat="48.65989" lon="-3.23564">
        <ele>52.7</ele>
        <time>2012-02-02T12:47:56Z</time>
      </trkpt>
      <trkpt lat="48.65976" lon="-3.23581">
        <ele>55</ele>
        <time>2012-02-02T12:47:56Z</time>
      </trkpt>
      <trkpt lat="48.65969" lon="-3.23606">
        <ele>53.5</ele>
        <time>2012-02-02T12:47:56Z</time>
      </trkpt>
      <trkpt lat="48.65955" lon="-3.2363">
        <ele>54.6</ele>
        <time>2012-02-02T12:47:56Z</time>
      </trkpt>
      <trkpt lat="48.65943" lon="-3.23658">
        <ele>54.3</ele>
        <time>2012-02-02T12:47:56Z</time>
      </trkpt>
      <trkpt lat="48.65944" lon="-3.23646">
        <ele>55.4</ele>
        <time>2012-02-02T12:47:56Z</time>
      </trkpt>
      <trkpt lat="48.65949" lon="-3.23633">
        <ele>55.6</ele>
        <time>2012-02-02T12:47:56Z</time>
      </trkpt>
      <trkpt lat="48.65953" lon="-3.23604">
        <ele>58</ele>
        <time>2012-02-02T12:47:56Z</time>
      </trkpt>
      <trkpt lat="48.65967" lon="-3.23584">
        <ele>57.4</ele>
        <time>2012-02-02T12:47:56Z</time>
      </trkpt>
      <trkpt lat="48.65977" lon="-3.23566">
        <ele>56.3</ele>
        <time>2012-02-02T12:47:56Z</time>
      </trkpt>
      <trkpt lat="48.65988" lon="-3.23537">
        <ele>58.1</ele>
        <time>2012-02-02T12:47:56Z</time>
      </trkpt>
      <trkpt lat="48.65998" lon="-3.23508">
        <ele>59</ele>
        <time>2012-02-02T12:47:56Z</time>
      </trkpt>
      <trkpt lat="48.6601" lon="-3.23476">
        <ele>60.5</ele>
        <time>2012-02-02T12:47:56Z</time>
      </trkpt>
      <trkpt lat="48.66024" lon="-3.23452">
        <ele>61.9</ele>
        <time>2012-02-02T12:47:56Z</time>
      </trkpt>
      <trkpt lat="48.66036" lon="-3.2343">
        <ele>63.7</ele>
        <time>2012-02-02T12:47:56Z</time>
      </trkpt>
      <trkpt lat="48.66048" lon="-3.23405">
        <ele>65.1</ele>
        <time>2012-02-02T12:47:56Z</time>
      </trkpt>
      <trkpt lat="48.66051" lon="-3.23369">
        <ele>66.2</ele>
        <time>2012-02-02T12:47:56Z</time>
      </trkpt>
      <trkpt lat="48.66051" lon="-3.23335">
        <ele>67.1</ele>
        <time>2012-02-02T12:47:56Z</time>
      </trkpt>
      <trkpt lat="48.66059" lon="-3.23299">
        <ele>66.8</ele>
        <time>2012-02-02T12:47:56Z</time>
      </trkpt>
      <trkpt lat="48.66071" lon="-3.23271">
        <ele>65.7</ele>
        <time>2012-02-02T12:47:56Z</time>
      </trkpt>
      <trkpt lat="48.66084" lon="-3.23241">
        <ele>65.9</ele>
        <time>2012-02-02T12:47:56Z</time>
      </trkpt>
      <trkpt lat="48.66074" lon="-3.23213">
        <ele>69.9</ele>
        <time>2012-02-02T12:47:56Z</time>
      </trkpt>
      <trkpt lat="48.66063" lon="-3.23192">
        <ele>72.6</ele>
        <time>2012-02-02T12:47:56Z</time>
      </trkpt>
      <trkpt lat="48.66049" lon="-3.23166">
        <ele>74.3</ele>
        <time>2012-02-02T12:47:56Z</time>
      </trkpt>
      <trkpt lat="48.66038" lon="-3.23139">
        <ele>77</ele>
        <time>2012-02-02T12:47:56Z</time>
      </trkpt>
      <trkpt lat="48.66028" lon="-3.23108">
        <ele>79.1</ele>
        <time>2012-02-02T12:47:56Z</time>
      </trkpt>
      <trkpt lat="48.66019" lon="-3.23071">
        <ele>80.3</ele>
        <time>2012-02-02T12:47:56Z</time>
      </trkpt>
      <trkpt lat="48.6601" lon="-3.23039">
        <ele>80.6</ele>
        <time>2012-02-02T12:47:56Z</time>
      </trkpt>
      <trkpt lat="48.65995" lon="-3.23008">
        <ele>81.3</ele>
        <time>2012-02-02T12:47:56Z</time>
      </trkpt>
      <trkpt lat="48.65977" lon="-3.22987">
        <ele>82.6</ele>
        <time>2012-02-02T12:47:56Z</time>
      </trkpt>
      <trkpt lat="48.65956" lon="-3.2297">
        <ele>83.6</ele>
        <time>2012-02-02T12:47:56Z</time>
      </trkpt>
      <trkpt lat="48.65937" lon="-3.22953">
        <ele>84.4</ele>
        <time>2012-02-02T12:47:56Z</time>
      </trkpt>
      <trkpt lat="48.65924" lon="-3.22925">
        <ele>86.4</ele>
        <time>2012-02-02T12:47:56Z</time>
      </trkpt>
      <trkpt lat="48.65913" lon="-3.22899">
        <ele>88.4</ele>
        <time>2012-02-02T12:47:56Z</time>
      </trkpt>
      <trkpt lat="48.65898" lon="-3.22878">
        <ele>89.9</ele>
        <time>2012-02-02T12:47:56Z</time>
      </trkpt>
      <trkpt lat="48.65883" lon="-3.22851">
        <ele>90.6</ele>
        <time>2012-02-02T12:47:56Z</time>
      </trkpt>
      <trkpt lat="48.65869" lon="-3.22823">
        <ele>90.7</ele>
        <time>2012-02-02T12:47:56Z</time>
      </trkpt>
      <trkpt lat="48.65851" lon="-3.22803">
        <ele>90.6</ele>
        <time>2012-02-02T12:47:56Z</time>
      </trkpt>
      <trkpt lat="48.65834" lon="-3.22782">
        <ele>90</ele>
        <time>2012-02-02T12:47:56Z</time>
      </trkpt>
      <trkpt lat="48.65831" lon="-3.22748">
        <ele>89.1</ele>
        <time>2012-02-02T12:47:56Z</time>
      </trkpt>
      <trkpt lat="48.65833" lon="-3.22713">
        <ele>88.7</ele>
        <time>2012-02-02T12:47:56Z</time>
      </trkpt>
      <trkpt lat="48.65837" lon="-3.22677">
        <ele>88</ele>
        <time>2012-02-02T12:47:56Z</time>
      </trkpt>
      <trkpt lat="48.65843" lon="-3.22646">
        <ele>88.5</ele>
        <time>2012-02-02T12:47:56Z</time>
      </trkpt>
      <trkpt lat="48.65845" lon="-3.22612">
        <ele>89</ele>
        <time>2012-02-02T12:47:56Z</time>
      </trkpt>
      <trkpt lat="48.65847" lon="-3.22577">
        <ele>89.5</ele>
        <time>2012-02-02T12:47:56Z</time>
      </trkpt>
      <trkpt lat="48.6585" lon="-3.2254">
        <ele>89.4</ele>
        <time>2012-02-02T12:47:56Z</time>
      </trkpt>
      <trkpt lat="48.65854" lon="-3.22508">
        <ele>89.3</ele>
        <time>2012-02-02T12:47:56Z</time>
      </trkpt>
      <trkpt lat="48.65861" lon="-3.22476">
        <ele>88.1</ele>
        <time>2012-02-02T12:47:56Z</time>
      </trkpt>
      <trkpt lat="48.65874" lon="-3.2245">
        <ele>88</ele>
        <time>2012-02-02T12:47:56Z</time>
      </trkpt>
      <trkpt lat="48.65888" lon="-3.22422">
        <ele>86.3</ele>
        <time>2012-02-02T12:47:56Z</time>
      </trkpt>
      <trkpt lat="48.65902" lon="-3.224">
        <ele>86</ele>
        <time>2012-02-02T12:47:56Z</time>
      </trkpt>
      <trkpt lat="48.6592" lon="-3.22383">
        <ele>85</ele>
        <time>2012-02-02T12:47:56Z</time>
      </trkpt>
      <trkpt lat="48.65933" lon="-3.22351">
        <ele>84.9</ele>
        <time>2012-02-02T12:47:56Z</time>
      </trkpt>
      <trkpt lat="48.65943" lon="-3.22317">
        <ele>84.1</ele>
        <time>2012-02-02T12:47:56Z</time>
      </trkpt>
      <trkpt lat="48.65956" lon="-3.2229">
        <ele>84.1</ele>
        <time>2012-02-02T12:47:56Z</time>
      </trkpt>
      <trkpt lat="48.6597" lon="-3.22262">
        <ele>82.6</ele>
        <time>2012-02-02T12:47:56Z</time>
      </trkpt>
      <trkpt lat="48.6598" lon="-3.22232">
        <ele>82.6</ele>
        <time>2012-02-02T12:47:56Z</time>
      </trkpt>
      <trkpt lat="48.65994" lon="-3.22208">
        <ele>81.8</ele>
        <time>2012-02-02T12:47:56Z</time>
      </trkpt>
      <trkpt lat="48.66007" lon="-3.22177">
        <ele>81</ele>
        <time>2012-02-02T12:47:56Z</time>
      </trkpt>
      <trkpt lat="48.66009" lon="-3.22141">
        <ele>80.4</ele>
        <time>2012-02-02T12:47:56Z</time>
      </trkpt>
      <trkpt lat="48.66017" lon="-3.22108">
        <ele>79.5</ele>
        <time>2012-02-02T12:47:56Z</time>
      </trkpt>
      <trkpt lat="48.66017" lon="-3.22072">
        <ele>79.7</ele>
        <time>2012-02-02T12:47:56Z</time>
      </trkpt>
      <trkpt lat="48.66019" lon="-3.22039">
        <ele>78.7</ele>
        <time>2012-02-02T12:47:56Z</time>
      </trkpt>
      <trkpt lat="48.66023" lon="-3.22002">
        <ele>78.2</ele>
        <time>2012-02-02T12:47:56Z</time>
      </trkpt>
      <trkpt lat="48.66029" lon="-3.21974">
        <ele>78</ele>
        <time>2012-02-02T12:47:56Z</time>
      </trkpt>
      <trkpt lat="48.66039" lon="-3.21997">
        <ele>78</ele>
        <time>2012-02-02T12:47:56Z</time>
      </trkpt>
      <trkpt lat="48.66041" lon="-3.22005">
        <ele>78.1</ele>
        <time>2012-02-02T12:47:56Z</time>
      </trkpt>
      <trkpt lat="48.66041" lon="-3.22008">
        <ele>78.1</ele>
        <time>2012-02-02T12:47:56Z</time>
      </trkpt>
      <trkpt lat="48.66041" lon="-3.2201">
        <ele>78.2</ele>
        <time>2012-02-02T12:47:56Z</time>
      </trkpt>
      <trkpt lat="48.66042" lon="-3.22013">
        <ele>78.2</ele>
        <time>2012-02-02T12:47:56Z</time>
      </trkpt>
      <trkpt lat="48.66042" lon="-3.22015">
        <ele>78.3</ele>
        <time>2012-02-02T12:47:56Z</time>
      </trkpt>
      <trkpt lat="48.66045" lon="-3.22015">
        <ele>78.3</ele>
        <time>2012-02-02T12:47:56Z</time>
      </trkpt>
      <trkpt lat="48.66046" lon="-3.22013">
        <ele>78.3</ele>
        <time>2012-02-02T12:47:56Z</time>
      </trkpt>
      <trkpt lat="48.66049" lon="-3.22012">
        <ele>78.3</ele>
        <time>2012-02-02T12:47:56Z</time>
      </trkpt>
      <trkpt lat="48.6605" lon="-3.22014">
        <ele>78.4</ele>
        <time>2012-02-02T12:47:56Z</time>
      </trkpt>
      <trkpt lat="48.66052" lon="-3.22017">
        <ele>78.5</ele>
        <time>2012-02-02T12:47:56Z</time>
      </trkpt>
      <trkpt lat="48.66054" lon="-3.22018">
        <ele>78.6</ele>
        <time>2012-02-02T12:47:56Z</time>
      </trkpt>
      <trkpt lat="48.66053" lon="-3.22021">
        <ele>78.7</ele>
        <time>2012-02-02T12:47:56Z</time>
      </trkpt>
      <trkpt lat="48.66053" lon="-3.22024">
        <ele>78.8</ele>
        <time>2012-02-02T12:47:56Z</time>
      </trkpt>
      <trkpt lat="48.66054" lon="-3.22026">
        <ele>78.9</ele>
        <time>2012-02-02T12:47:56Z</time>
      </trkpt>
      <trkpt lat="48.66056" lon="-3.22028">
        <ele>79</ele>
        <time>2012-02-02T12:47:56Z</time>
      </trkpt>
      <trkpt lat="48.66058" lon="-3.22027">
        <ele>78.9</ele>
        <time>2012-02-02T12:47:56Z</time>
      </trkpt>
      <trkpt lat="48.66058" lon="-3.22029">
        <ele>78.9</ele>
        <time>2012-02-02T12:47:56Z</time>
      </trkpt>
      <trkpt lat="48.66059" lon="-3.22031">
        <ele>78.8</ele>
        <time>2012-02-02T12:47:56Z</time>
      </trkpt>
      <trkpt lat="48.66061" lon="-3.22033">
        <ele>78.7</ele>
        <time>2012-02-02T12:47:56Z</time>
      </trkpt>
      <trkpt lat="48.66063" lon="-3.22033">
        <ele>78.6</ele>
        <time>2012-02-02T12:47:56Z</time>
      </trkpt>
      <trkpt lat="48.66064" lon="-3.22035">
        <ele>78.6</ele>
        <time>2012-02-02T12:47:56Z</time>
      </trkpt>
      <trkpt lat="48.66064" lon="-3.22038">
        <ele>78.6</ele>
        <time>2012-02-02T12:47:56Z</time>
      </trkpt>
      <trkpt lat="48.66064" lon="-3.22038">
        <ele>78.6</ele>
        <time>2012-02-02T12:47:56Z</time>
      </trkpt>
    </trkseg>
  </trk>
</gpx>